Location: Muenchen
(48.1800°N, 11.5800°E)
Time: 00:15:03
(UTC+02:00)

Iridium 36 - Visible Passes

Search period start: 28 June 2016 00:00
Search period end: 08 July 2016 00:00
Orbit: 772 x 775 km, 86.4° (Epoch: 27 June)

Date Brightness Start Highest point End Pass type
(mag) Time Alt. Az. Time Alt. Az. Time Alt. Az.
28 Jun 7.3 00:12:37 10° NNE 00:16:27 20° ENE 00:19:28 13° ESE visible
28 Jun 5.7 01:52:24 10° N 01:57:32 60° W 01:59:50 31° SSW visible
28 Jun 7.8 23:39:18 10° NE 23:41:10 12° ENE 23:43:01 10° E visible
29 Jun 5.5 01:17:30 10° N 01:22:44 78° E 01:25:03 34° SSE visible
29 Jun 7.5 02:59:42 10° NW 03:02:40 15° WNW 03:05:24 11° WSW visible
30 Jun 6.2 00:42:49 10° N 00:47:48 44° E 00:50:15 26° SE visible
30 Jun 6.9 02:23:54 10° NNW 02:28:12 27° W 02:30:37 19° WSW visible
01 Jul 7.0 00:08:25 10° NNE 00:12:44 26° ENE 00:15:28 17° ESE visible
01 Jul 6.1 01:48:38 10° NNW 01:53:36 46° W 01:55:50 29° SW visible
01 Jul 7.6 23:34:32 10° NNE 23:37:31 15° ENE 23:40:29 10° ESE visible
02 Jul 5.5 01:13:38 10° N 01:18:52 82° W 01:21:03 36° S visible
02 Jul 7.7 02:56:45 10° NW 02:58:36 12° WNW 03:00:27 10° W visible
03 Jul 5.8 00:38:52 10° N 00:44:00 57° E 00:46:17 31° SSE visible
03 Jul 7.2 02:20:23 10° NNW 02:24:12 21° WNW 02:26:39 15° WSW visible
04 Jul 6.6 00:04:19 10° NNE 00:09:00 32° ENE 00:11:31 21° ESE visible
04 Jul 6.5 01:44:56 10° NNW 01:49:39 36° W 01:51:53 25° SW visible
04 Jul 7.3 23:30:09 10° NNE 23:33:50 19° ENE 23:36:45 13° ESE visible
05 Jul 5.7 01:09:49 10° N 01:14:58 64° W 01:17:07 34° SSW visible
05 Jul 7.8 22:57:09 10° NE 22:58:32 11° ENE 22:59:56 10° E visible
06 Jul 5.5 00:34:57 10° N 00:40:10 73° E 00:42:22 35° SSE visible
06 Jul 7.5 02:16:59 10° NW 02:20:10 16° WNW 02:22:44 12° WSW visible
07 Jul 6.2 00:00:17 10° N 00:05:13 41° E 00:07:37 26° SE visible
07 Jul 6.9 01:41:17 10° NNW 01:45:40 28° W 01:47:59 20° WSW visible
07 Jul 7.0 23:25:56 10° NNE 23:30:08 24° ENE 23:32:52 16° ESE visible
